Flag for Brazil Weather past 2 weeks in Salvador, Bahia, Brazil

Now
79 °F

Partly sunny.


Feels Like: 81 °F
Forecast: 76 / 80 °F
Wind: 7 mph from Southeast

Location: Salvador Aeroporto

Current Time: Apr 27, 2015 at 3:48:43 PM

Latest Report: Apr 27, 2015 at 3:00 PM


Visibility: N/A

Pressure: 29.92 "Hg

Humidity: 74%

Dew point: 70 °F

Location of SalvadorLocation

Historic Weather in Salvador — Graph

°F

Salvador temperature yesterday

Maximum temperature yesterday: 84 °F (at 10:00 AM)
Minimum temperature yesterday: 75 °F (at 6:48 AM)
Average temperature yesterday: 79 °F

Past Weeks' High & Low Weather Summary

 TemperatureHumidityPressure
High88 °F (Apr 21, 10:00 AM)100% (Apr 15, 3:00 AM)30.01 "Hg (Apr 15, 3:00 AM)
Low73 °F (Apr 27, 5:00 AM)59% (Apr 13, 1:00 PM)29.83 "Hg (Apr 19, 3:00 PM)
Average81 °F75%29.93 "Hg
* Reported Apr 12 2:00 PM — Apr 27 2:00 PM, Salvador, Weather by CustomWeather, © 2015

Note: Actual official high and low records may vary slightly from our data, if they occured in-between our weather recording intervals... More about our weather records

Advertising

Salvador weather history for previous 24 hours

 ConditionsComfort  
Time TempWeatherWind HumidityBarometerVisibility
2:00 PM
Mon, Apr 27
79 °FPartly sunny.6 mph79%29.92 "Hg5 mi
1:00 PM79 °FScattered showers. Partly sunny.2 mph79%29.92 "Hg5 mi
12:00 PM75 °FLight rain. Broken clouds.2 mph94%29.95 "Hg4 mi
11:00 AM73 °FLight rain. Mostly cloudy.3 mph94%30.01 "Hg2 mi
10:00 AM73 °FRain. Mostly cloudy.2 mph94%30.01 "Hg2 mi
9:00 AM73 °FLight rain. Mostly cloudy.6 mph94%30.01 "Hg2 mi
8:00 AM73 °FLight rain. Mostly cloudy.5 mph94%30.01 "Hg2 mi
7:00 AM73 °FLight rain. Mostly cloudy.6 mph89%29.98 "Hg2 mi
6:00 AM73 °FLight rain. Fog.2 mph89%29.95 "Hg2 mi
5:00 AM73 °FHeavy rain. Fog.2 mph89%29.92 "Hg2 mi
4:00 AM77 °FPassing clouds.9 mph83%29.92 "HgN/A
3:00 AM79 °FPartly cloudy.10 mph84%29.92 "HgN/A
2:00 AM81 °FPassing clouds.9 mph74%29.92 "HgN/A
1:00 AM81 °FPassing clouds.7 mph79%29.98 "HgN/A
12:00 AM81 °FPassing clouds.7 mph79%29.98 "HgN/A
11:00 PM
Sun, Apr 26
79 °FPartly cloudy.5 mph79%29.98 "Hg5 mi
10:00 PM79 °FPartly cloudy.8 mph84%29.98 "Hg5 mi
9:00 PM79 °FPartly cloudy.7 mph79%29.98 "HgN/A
8:00 PM79 °FPartly cloudy.7 mph79%29.98 "HgN/A
7:00 PM79 °FPartly cloudy.7 mph84%29.95 "HgN/A
6:00 PM77 °FPassing clouds.3 mph89%29.95 "HgN/A
5:00 PM77 °FLight rain. Partly sunny.7 mph89%29.92 "Hg4 mi
4:00 PM77 °FThunderstorms. Broken clouds.8 mph89%29.92 "Hg2 mi
3:00 PM75 °FThunderstorms. Broken clouds.8 mph89%29.92 "Hg1 mi
Weather by CustomWeather, © 2015

See weather overviewHow to use our weather pages